When you browse on this site, cookies collect data to enhance your experience and personalize the content and advertising you see.
Visit our Privacy Policy to learn more. By continuing to use the site, you agree to this use of cookies and data.
  • In Portugal
  • List of Countries
  • For 7 days
  • Water Temperature
  • Satellite Maps
  • Weather Map
  • Weather Widgets
  • user-avatar
    Login

    Hourly Weather La Massana

    Today, 24 March, Sunday

    Time Temperature Precipitation Wind Pressure Humidity
    00:00 +2°C° 0 mm 1 mps 612 mmHg 69%
    01:00 +2°C° 0 mm 1 mps 612 mmHg 68%
    02:00 +2°C° 0 mm 1 mps 612 mmHg 67%
    03:00 +2°C° 0 mm 1 mps 612 mmHg 66%
    04:00 +2°C° 0 mm 1 mps 612 mmHg 65%
    05:00 +2°C° 0 mm 1 mps 612 mmHg 64%
    06:00 +2°C° 0 mm 1 mps 612 mmHg 62%
    07:00 +5°C° 0 mm 1 mps 613 mmHg 54%
    08:00 +7°C° 0 mm 1 mps 614 mmHg 46%
    09:00 +10°C° 0 mm 1 mps 615 mmHg 38%
    10:00 +11°C° 0 mm 1 mps 616 mmHg 37%
    11:00 +12°C° 0 mm 1 mps 616 mmHg 35%
    12:00 +13°C° 0 mm 1 mps 616 mmHg 33%
    13:00 +13°C° 0.1 mm 1 mps 616 mmHg 37%
    14:00 +12°C° 0.1 mm 1 mps 615 mmHg 40%
    15:00 +12°C° 0.1 mm 2 mps 615 mmHg 44%
    16:00 +10°C° 0.6 mm 1 mps 614 mmHg 55%
    17:00 +8°C° 0.6 mm 1 mps 613 mmHg 66%
    18:00 +6°C° 0.6 mm 1 mps 612 mmHg 77%
    19:00 +5°C° 0.1 mm 1 mps 612 mmHg 82%
    20:00 +4°C° 0.1 mm 1 mps 612 mmHg 86%
    21:00 +3°C° 0.1 mm 1 mps 612 mmHg 91%
    22:00 +3°C° 0 mm 1 mps 612 mmHg 91%
    23:00 +2°C° 0 mm 1 mps 611 mmHg 92%

    Tomorrow, 25 March, Monday

    Time Temperature Precipitation Wind Pressure Humidity
    00:00 +2°C° 0 mm 1 mps 611 mmHg 93%
    01:00 +1°C° 0 mm 1 mps 611 mmHg 89%
    02:00 +1°C° 0 mm 1 mps 610 mmHg 86%
    03:00 +1°C° 0 mm 1 mps 610 mmHg 83%
    04:00 0°C° 0 mm 1 mps 610 mmHg 80%
    05:00 0°C° 0 mm 1 mps 610 mmHg 78%
    06:00 -2°C° 0 mm 2 mps 610 mmHg 75%
    07:00 +1°C° 0 mm 2 mps 611 mmHg 69%
    08:00 +3°C° 0 mm 2 mps 612 mmHg 63%
    09:00 +5°C° 0 mm 2 mps 613 mmHg 57%
    10:00 +6°C° 0 mm 2 mps 613 mmHg 54%
    11:00 +7°C° 0 mm 2 mps 613 mmHg 51%
    12:00 +8°C° 0 mm 3 mps 613 mmHg 47%
    13:00 +8°C° 0 mm 3 mps 613 mmHg 48%
    14:00 +7°C° 0 mm 3 mps 612 mmHg 49%
    15:00 +7°C° 0 mm 3 mps 612 mmHg 49%
    16:00 +4°C° 0 mm 3 mps 611 mmHg 58%
    17:00 +2°C° 0 mm 3 mps 610 mmHg 66%
    18:00 0°C° 0 mm 3 mps 609 mmHg 74%
    19:00 -1°C° 0 mm 3 mps 609 mmHg 77%
    20:00 -2°C° 0 mm 3 mps 610 mmHg 80%
    21:00 -4°C° 0 mm 3 mps 610 mmHg 83%
    22:00 -4°C° 0 mm 3 mps 610 mmHg 84%
    23:00 -4°C° 0 mm 3 mps 610 mmHg 85%

    Day after tomorrow, 26 March, Tuesday

    Time Temperature Precipitation Wind Pressure Humidity
    00:00 -4°C° 0 mm 4 mps 610 mmHg 86%
    01:00 -4°C° 0 mm 3 mps 610 mmHg 85%
    02:00 -5°C° 0 mm 3 mps 610 mmHg 84%
    03:00 -5°C° 0 mm 3 mps 610 mmHg 83%
    04:00 -6°C° 0 mm 3 mps 610 mmHg 77%
    05:00 -6°C° 0 mm 3 mps 610 mmHg 71%
    06:00 -7°C° 0 mm 3 mps 610 mmHg 65%
    07:00 -5°C° 0 mm 3 mps 611 mmHg 52%
    08:00 -2°C° 0 mm 4 mps 612 mmHg 38%
    09:00 0°C° 0 mm 4 mps 613 mmHg 25%
    10:00 +1°C° 0 mm 4 mps 613 mmHg 22%
    11:00 +3°C° 0 mm 4 mps 614 mmHg 20%
    12:00 +5°C° 0 mm 4 mps 614 mmHg 18%
    13:00 +5°C° 0 mm 4 mps 614 mmHg 20%
    14:00 +5°C° 0 mm 3 mps 613 mmHg 23%
    15:00 +4°C° 0 mm 3 mps 613 mmHg 26%
    16:00 +2°C° 0 mm 3 mps 612 mmHg 35%
    17:00 0°C° 0 mm 3 mps 611 mmHg 43%
    18:00 -2°C° 0 mm 2 mps 611 mmHg 52%
    19:00 -2°C° 0 mm 2 mps 611 mmHg 54%
    20:00 -3°C° 0 mm 2 mps 611 mmHg 56%
    21:00 -4°C° 0 mm 2 mps 612 mmHg 59%
    22:00 -4°C° 0 mm 2 mps 612 mmHg 58%
    23:00 -2°C° 0 mm 1 mps 612 mmHg 57%

    27 March, Wednesday

    Time Temperature Precipitation Wind Pressure Humidity
    00:00 -2°C° 0 mm 1 mps 612 mmHg 56%
    01:00 -2°C° 0 mm 1 mps 612 mmHg 57%
    02:00 -2°C° 0 mm 1 mps 611 mmHg 58%
    03:00 -2°C° 0 mm 1 mps 611 mmHg 59%
    04:00 -2°C° 0 mm 1 mps 611 mmHg 56%
    05:00 -2°C° 0 mm 1 mps 611 mmHg 53%
    06:00 -3°C° 0 mm 1 mps 611 mmHg 50%
    07:00 0°C° 0 mm 1 mps 613 mmHg 41%
    08:00 +3°C° 0 mm 1 mps 614 mmHg 32%
    09:00 +6°C° 0 mm 1 mps 616 mmHg 23%
    10:00 +7°C° 0 mm 1 mps 616 mmHg 23%
    11:00 +8°C° 0 mm 1 mps 616 mmHg 23%
    12:00 +9°C° 0 mm 2 mps 617 mmHg 23%
    13:00 +8°C° 0 mm 2 mps 616 mmHg 26%
    14:00 +8°C° 0 mm 2 mps 616 mmHg 29%
    15:00 +8°C° 0 mm 2 mps 615 mmHg 33%
    16:00 +6°C° 0 mm 2 mps 614 mmHg 43%
    17:00 +3°C° 0 mm 2 mps 614 mmHg 53%
    18:00 +2°C° 0 mm 1 mps 613 mmHg 62%
    19:00 +1°C° 0 mm 1 mps 613 mmHg 65%
    20:00 0°C° 0 mm 1 mps 613 mmHg 68%
    21:00 -1°C° 0 mm 1 mps 613 mmHg 72%
    22:00 -1°C° 0 mm 1 mps 613 mmHg 67%
    23:00 -1°C° 0 mm 1 mps 613 mmHg 62%

    28 March, Thursday

    Time Temperature Precipitation Wind Pressure Humidity
    00:00 -1°C° 0 mm 1 mps 612 mmHg 57%
    01:00 -1°C° 0 mm 1 mps 612 mmHg 60%
    02:00 -1°C° 0 mm 1 mps 612 mmHg 63%
    03:00 -3°C° 0 mm 2 mps 612 mmHg 66%
    04:00 -1°C° 0 mm 1 mps 612 mmHg 66%
    05:00 -1°C° 0 mm 1 mps 612 mmHg 66%
    06:00 -1°C° 0 mm 1 mps 612 mmHg 66%
    07:00 +2°C° 0 mm 1 mps 614 mmHg 57%
    08:00 +4°C° 0 mm 1 mps 615 mmHg 48%
    09:00 +7°C° 0 mm 1 mps 616 mmHg 39%
    10:00 +7°C° 0 mm 2 mps 616 mmHg 37%
    11:00 +8°C° 0 mm 2 mps 617 mmHg 36%
    12:00 +9°C° 0 mm 2 mps 617 mmHg 35%
    13:00 +9°C° 0 mm 2 mps 616 mmHg 38%
    14:00 +9°C° 0 mm 2 mps 616 mmHg 40%
    15:00 +8°C° 0 mm 2 mps 615 mmHg 43%
    16:00 +7°C° 0 mm 1 mps 615 mmHg 52%
    17:00 +6°C° 0 mm 1 mps 614 mmHg 61%
    18:00 +4°C° 0 mm 1 mps 613 mmHg 70%
    19:00 +3°C° 0 mm 1 mps 613 mmHg 75%
    20:00 +1°C° 0 mm 0 mps 613 mmHg 80%
    21:00 0°C° 0 mm 0 mps 614 mmHg 85%
    22:00 0°C° 0 mm 0 mps 613 mmHg 87%
    23:00 -1°C° 0 mm 0 mps 613 mmHg 89%

    29 March, Friday

    Time Temperature Precipitation Wind Pressure Humidity
    00:00 -1°C° 0 mm 0 mps 613 mmHg 91%
    01:00 -1°C° 0 mm 0 mps 613 mmHg 91%
    02:00 -1°C° 0 mm 0 mps 613 mmHg 91%
    03:00 -2°C° 0 mm 0 mps 613 mmHg 91%
    04:00 -2°C° 0 mm 0 mps 613 mmHg 91%
    05:00 -2°C° 0 mm 0 mps 613 mmHg 90%
    06:00 -2°C° 0 mm 0 mps 613 mmHg 90%
    07:00 +2°C° 0 mm 1 mps 614 mmHg 79%
    08:00 +4°C° 0 mm 1 mps 615 mmHg 67%
    09:00 +6°C° 0 mm 1 mps 616 mmHg 56%
    10:00 +6°C° 0.1 mm 1 mps 616 mmHg 57%
    11:00 +6°C° 0.1 mm 1 mps 615 mmHg 58%
    12:00 +6°C° 0.1 mm 1 mps 615 mmHg 59%
    13:00 +6°C° 0.1 mm 1 mps 615 mmHg 60%
    14:00 +6°C° 0.1 mm 1 mps 614 mmHg 62%
    15:00 +5°C° 0.1 mm 1 mps 614 mmHg 64%
    16:00 +5°C° 0.1 mm 1 mps 613 mmHg 68%
    17:00 +4°C° 0.1 mm 1 mps 613 mmHg 71%
    18:00 +3°C° 0.1 mm 0 mps 613 mmHg 75%
    19:00 +3°C° 0 mm 1 mps 613 mmHg 79%
    20:00 +2°C° 0 mm 1 mps 613 mmHg 82%
    21:00 +1°C° 0 mm 1 mps 613 mmHg 86%
    22:00 +1°C° 0 mm 1 mps 612 mmHg 88%
    23:00 0°C° 0 mm 1 mps 612 mmHg 90%
    Show more